Starlink 31497

operational
NORAD ID: 60592 Int'l Des: 2024-150 Owner: SPXS Country: US Constellation: starlink
LEOCIRCULAR

Über Starlink 31497

Beschreibung wird geladen...

Live-Position

3D-Globus wird geladen...

Nächste Überflüge

Höhenverlauf

Altitude vs Time

uPlot chart will show altitude changes over time

Zweizeiliger Elementsatz

1 60592U 24150K 25354.22122971 -.00001296 00000-0 -31664-4 0 9993
2 60592 53.1632 316.2043 0001288 92.8595 267.2553 15.30185087 75875
Epoch: 20. Dez. 2025 • Age: 10 hours

Aktueller Status

Höhe 480.2 km
Geschwindigkeit 7.63 km/s
Subsatellitenpunkt 49.72°N, 60.99°E
Startdatum 20. Aug. 2024
Alter 1.3 years
Typ internet

Technische Details

Klassifizierung Payload
Masse 730.00 kg
Trockenmasse 700.00 kg
Gesamtmasse 730.00 kg
Länge 0.30 m
Durchmesser 4.10 m
Spannweite 29.00 m
Form Box + pan
Hersteller SPXS
Bus-Typ Starlink V2M
Phasenstatus In Orbit
Besitzer/Staat SPXS/US

Große Konstellationen

Loading constellations...